Location: Evergreen Manor
(41.4083°N, 81.4939°W)
Time: 22:36:55
(UTC+00:00)

Meteor 1-19 Rocket - Pass Details

Date: 11 December 2019
Orbit: 816 x 918 km, 81.2° (Epoch: 22 January)

Event Time Altitude Azimuth Distance (km) Brightness Sun altitude
Exits shadow 11:03:47 - 349° (N) 3,283 7.0 -17.7°
Reaches altitude 10° 11:05:57 10° 349° (N) 2,443 6.3 -17.3°
Maximum altitude 11:11:29 85° 262° (W) 852 4.1 -16.3°
Drops below altitude 10° 11:17:07 10° 174° (S) 2,487 6.9 -15.3°
Sets 11:19:34 0° 174° (S) 3,435 7.7 -14.9°
